QPF
0.00 0.00 0.01 0.00 0.01 0.01 0.01 0.01 0.01 0.01 0.02 0.01 0.01 0.01 0.02 0.03 0.03 0.03 0.02 0.02 0.02 0.02 0.01 0.01 0.00 0.00 0.00 0.00 0.00 0.01 0.01 0.00 0.00 0.00 0.00 0.00 0.00 0.00 0.00 0.00 0.00 0.00 0.00
0.01 0.01 0.01 0.01 0.01 0.01 0.01 0.01 0.00 0.00 0.01 0.01 0.00 0.00 0.00 0.01 0.02 0.02 0.03 0.04 0.04 0.04 0.03 0.02 0.01 0.01 0.01 0.01 0.02 0.01 0.01 0.01 0.01 0.01 0.01 0.01 0.01 0.00 0.00 0.00 0.00 0.00 0.00
0.02 0.02 0.02 0.02 0.01 0.01 0.01 0.01 0.00 0.00 0.00 0.01 0.00 0.00 0.00 0.00 0.00 0.01 0.02 0.03 0.04 0.04 0.03 0.02 0.04 0.06 0.03 0.03 0.05 0.04 0.03 0.02 0.01 0.01 0.01 0.02 0.02 0.01 0.00 0.00 0.00 0.00 0.00
0.01 0.01 0.02 0.03 0.03 0.02 0.01 0.01 0.01 0.00 0.00 0.01 0.00 0.00 0.00 0.00 0.00 0.00 0.01 0.02 0.03 0.04 0.04 0.04 0.06 0.08 0.06 0.05 0.05 0.05 0.04 0.04 0.02 0.01 0.00 0.00 0.01 0.01 0.00 0.00 0.00 0.00 0.00
0.00 0.01 0.02 0.04 0.04 0.04 0.03 0.03 0.02 0.02 0.02 0.02 0.01 0.01 0.01 0.01 0.00 0.00 0.00 0.00 0.01 0.02 0.03 0.04 0.05 0.06 0.05 0.05 0.05 0.05 0.06 0.06 0.03 0.00 0.00 0.00 0.01 0.01 0.00 0.00 0.00 0.00 0.00
0.00 0.00 0.02 0.04 0.05 0.05 0.05 0.04 0.03 0.03 0.03 0.02 0.02 0.02 0.03 0.03 0.02 0.01 0.01 0.01 0.00 0.01 0.02 0.04 0.06 0.09 0.07 0.04 0.05 0.06 0.08 0.07 0.03 0.00 0.00 0.01 0.04 0.05 0.02 0.01 0.00 0.00 0.00
0.00 0.00 0.01 0.02 0.03 0.04 0.05 0.05 0.04 0.04 0.04 0.03 0.03 0.04 0.05 0.04 0.03 0.03 0.03 0.02 0.01 0.01 0.01 0.02 0.05 0.08 0.08 0.05 0.06 0.09 0.09 0.06 0.02 0.03 0.01 0.01 0.03 0.10 0.15 0.09 0.04 0.01 0.00
0.00 0.00 0.00 0.00 0.01 0.01 0.03 0.05 0.05 0.06 0.06 0.05 0.05 0.05 0.04 0.03 0.04 0.05 0.05 0.03 0.03 0.03 0.03 0.02 0.02 0.06 0.09 0.08 0.08 0.10 0.08 0.03 0.02 0.03 0.02 0.01 0.04 0.19 0.24 0.25 0.15 0.03 0.00
0.00 0.00 0.00 0.00 0.00 0.00 0.01 0.03 0.04 0.04 0.04 0.04 0.04 0.04 0.02 0.02 0.04 0.05 0.05 0.03 0.04 0.05 0.04 0.02 0.01 0.02 0.06 0.12 0.12 0.09 0.05 0.02 0.03 0.06 0.03 0.02 0.04 0.19 0.24 0.34 0.27 0.11 0.02
0.00 0.00 0.00 0.00 0.00 0.00 0.00 0.01 0.02 0.02 0.02 0.02 0.03 0.03 0.02 0.03 0.04 0.04 0.03 0.03 0.05 0.05 0.04 0.02 0.01 0.01 0.02 0.04 0.05 0.05 0.02 0.01 0.05 0.08 0.07 0.04 0.03 0.16 0.21 0.29 0.29 0.19 0.08
0.00 0.00 0.00 0.00 0.00 0.00 0.00 0.00 0.00 0.01 0.01 0.01 0.01 0.02 0.02 0.01 0.01 0.02 0.02 0.02 0.04 0.04 0.03 0.02 0.03 0.02 0.02 0.01 0.01 0.01 0.00 0.01 0.03 0.05 0.06 0.03 0.05 0.14 0.15 0.20 0.27 0.24 0.17
0.00 0.00 0.00 0.00 0.00 0.00 0.00 0.00 0.00 0.00 0.00 0.00 0.00 0.00 0.00 0.00 0.01 0.01 0.02 0.03 0.04 0.03 0.03 0.03 0.04 0.03 0.02 0.01 0.00 0.00 0.00 0.00 0.00 0.00 0.01 0.01 0.04 0.08 0.09 0.12 0.22 0.25 0.23
0.00 0.00 0.00 0.00 0.00 0.00 0.00 0.00 0.00 0.00 0.00 0.00 0.00 0.00 0.00 0.00 0.00 0.01 0.01 0.02 0.03 0.03 0.06 0.08 0.08 0.06 0.05 0.04 0.03 0.01 0.00 0.00 0.00 0.00 0.00 0.00 0.00 0.01 0.04 0.10 0.18 0.24 0.26
0.00 0.00 0.00 0.00 0.00 0.00 0.00 0.00 0.00 0.00 0.00 0.00 0.00 0.00 0.00 0.00 0.00 0.00 0.00 0.00 0.01 0.03 0.06 0.11 0.12 0.09 0.06 0.04 0.03 0.01 0.01 0.00 0.00 0.00 0.00 0.00 0.00 0.00 0.01 0.06 0.16 0.24 0.28
0.00 0.00 0.00 0.00 0.00 0.00 0.00 0.00 0.00 0.00 0.00 0.00 0.00 0.00 0.00 0.00 0.00 0.00 0.00 0.00 0.00 0.00 0.01 0.02 0.04 0.04 0.04 0.03 0.03 0.01 0.01 0.00 0.00 0.00 0.00 0.00 0.00 0.00 0.00 0.01 0.09 0.18 0.26
0.00 0.00 0.00 0.00 0.00 0.00 0.00 0.00 0.00 0.00 0.00 0.00 0.00 0.00 0.00 0.00 0.00 0.00 0.00 0.00 0.00 0.00 0.00 0.00 0.00 0.00 0.00 0.01 0.01 0.01 0.01 0.01 0.00 0.00 0.00 0.00 0.00 0.00 0.00 0.00 0.03 0.11 0.20
0.00 0.00 0.00 0.00 0.00 0.00 0.00 0.00 0.00 0.00 0.00 0.00 0.00 0.00 0.00 0.00 0.00 0.00 0.00 0.00 0.00 0.00 0.00 0.00 0.00 0.00 0.00 0.00 0.00 0.00 0.00 0.00 0.00 0.00 0.00 0.00 0.00 0.00 0.00 0.00 0.00 0.04 0.11
0.00 0.00 0.00 0.00 0.00 0.00 0.00 0.00 0.00 0.00 0.00 0.00 0.00 0.00 0.00 0.00 0.00 0.00 0.00 0.00 0.00 0.00 0.00 0.00 0.00 0.00 0.00 0.00 0.00 0.00 0.00 0.00 0.00 0.00 0.00 0.00 0.00 0.00 0.00 0.00 0.00 0.01 0.05
0.00 0.00 0.00 0.00 0.00 0.00 0.00 0.00 0.00 0.00 0.00 0.00 0.00 0.00 0.00 0.00 0.00 0.00 0.00 0.00 0.00 0.00 0.00 0.00 0.00 0.00 0.00 0.00 0.00 0.00 0.00 0.00 0.00 0.00 0.00 0.00 0.00 0.00 0.00 0.00 0.00 0.00 0.02
0.00 0.00 0.00 0.00 0.00 0.00 0.00 0.00 0.00 0.00 0.00 0.00 0.00 0.00 0.00 0.00 0.00 0.00 0.00 0.00 0.00 0.00 0.00 0.00 0.00 0.00 0.00 0.00 0.00 0.00 0.00 0.00 0.00 0.00 0.00 0.00 0.00 0.00 0.00 0.00 0.00 0.00 0.00
0.00 0.00 0.00 0.00 0.00 0.00 0.00 0.00 0.00 0.00 0.00 0.00 0.00 0.00 0.00 0.00 0.00 0.00 0.00 0.00 0.00 0.00 0.00 0.00 0.00 0.00 0.00 0.00 0.00 0.00 0.00 0.00 0.00 0.00 0.00 0.00 0.00 0.00 0.00 0.00 0.00 0.00 0.00
0.00 0.00 0.00 0.00 0.00 0.00 0.00 0.00 0.00 0.00 0.00 0.00 0.00 0.00 0.00 0.00 0.00 0.00 0.00 0.00 0.00 0.00 0.00 0.00 0.00 0.00 0.00 0.00 0.01 0.01 0.00 0.00 0.00 0.00 0.00 0.00 0.00 0.00 0.00 0.00 0.00 0.00 0.00
0.00 0.00 0.00 0.00 0.00 0.00 0.00 0.00 0.00 0.00 0.00 0.00 0.00 0.00 0.00 0.00 0.00 0.00 0.00 0.00 0.00 0.00 0.00 0.00 0.00 0.00 0.00 0.00 0.01 0.02 0.02 0.00 0.00 0.00 0.00 0.00 0.00 0.00 0.00 0.00 0.01 0.01 0.00
0.00 0.00 0.00 0.00 0.00 0.00 0.00 0.00 0.00 0.00 0.00 0.00 0.00 0.00 0.00 0.00 0.00 0.00 0.00 0.00 0.00 0.00 0.00 0.00 0.00 0.00 0.00 0.00 0.00 0.01 0.02 0.03 0.02 0.01 0.00 0.00 0.00 0.00 0.00 0.00 0.00 0.00 0.01
0.00 0.00 0.00 0.00 0.00 0.00 0.00 0.00 0.00 0.00 0.00 0.00 0.00 0.00 0.00 0.00 0.00 0.00 0.00 0.00 0.00 0.00 0.00 0.00 0.00 0.00 0.00 0.00 0.00 0.01 0.01 0.02 0.03 0.03 0.01 0.00 0.00 0.00 0.00 0.00 0.00 0.00 0.00
0.00 0.00 0.00 0.00 0.00 0.00 0.00 0.00 0.00 0.00 0.00 0.00 0.00 0.00 0.00 0.00 0.00 0.00 0.00 0.00 0.00 0.00 0.00 0.00 0.00 0.00 0.00 0.00 0.01 0.01 0.01 0.01 0.02 0.04 0.03 0.01 0.01 0.00 0.00 0.00 0.00 0.00 0.00
MSLP
1020.15 1019.54 1018.94 1018.44 1018.10 1017.91 1017.83 1017.80 1017.74 1017.61 1017.39 1017.10 1016.80 1016.53 1016.33 1016.22 1016.18 1016.18 1016.18 1016.12 1016.01 1015.83 1015.62 1015.41 1015.22 1015.10 1015.03 1015.01 1015.00 1014.99 1014.96 1014.91 1014.84 1014.77 1014.72 1014.71 1014.74 1014.79 1014.85 1014.92 1014.97 1015.02 1015.06
1021.21 1020.39 1019.59 1018.92 1018.44 1018.17 1018.03 1017.97 1017.90 1017.76 1017.53 1017.24 1016.93 1016.66 1016.45 1016.34 1016.30 1016.29 1016.27 1016.21 1016.08 1015.88 1015.66 1015.44 1015.26 1015.14 1015.07 1015.05 1015.03 1015.01 1014.96 1014.88 1014.79 1014.72 1014.68 1014.69 1014.75 1014.84 1014.93 1015.02 1015.08 1015.12 1015.15
1022.25 1021.24 1020.25 1019.43 1018.83 1018.46 1018.27 1018.17 1018.08 1017.93 1017.69 1017.39 1017.07 1016.78 1016.57 1016.44 1016.37 1016.34 1016.30 1016.20 1016.04 1015.83 1015.60 1015.39 1015.22 1015.11 1015.06 1015.04 1015.02 1014.97 1014.90 1014.79 1014.69 1014.61 1014.58 1014.62 1014.71 1014.84 1014.98 1015.09 1015.17 1015.21 1015.23
1023.18 1022.02 1020.90 1019.96 1019.28 1018.85 1018.61 1018.47 1018.34 1018.16 1017.91 1017.58 1017.24 1016.93 1016.69 1016.53 1016.42 1016.35 1016.25 1016.12 1015.92 1015.69 1015.46 1015.25 1015.10 1015.02 1014.98 1014.97 1014.95 1014.90 1014.80 1014.67 1014.54 1014.46 1014.44 1014.50 1014.63 1014.80 1014.98 1015.12 1015.22 1015.27 1015.29
1023.93 1022.68 1021.50 1020.52 1019.81 1019.35 1019.08 1018.91 1018.74 1018.52 1018.22 1017.85 1017.47 1017.12 1016.83 1016.62 1016.46 1016.33 1016.18 1015.99 1015.76 1015.50 1015.26 1015.06 1014.93 1014.87 1014.86 1014.87 1014.85 1014.79 1014.67 1014.52 1014.37 1014.28 1014.26 1014.33 1014.49 1014.70 1014.91 1015.10 1015.23 1015.29 1015.31
1024.47 1023.22 1022.07 1021.13 1020.44 1020.00 1019.72 1019.51 1019.30 1019.01 1018.64 1018.21 1017.77 1017.36 1017.02 1016.74 1016.53 1016.33 1016.11 1015.86 1015.58 1015.30 1015.04 1014.85 1014.73 1014.70 1014.71 1014.74 1014.72 1014.65 1014.52 1014.35 1014.19 1014.08 1014.06 1014.14 1014.31 1014.54 1014.79 1015.01 1015.17 1015.26 1015.30
1024.85 1023.67 1022.62 1021.78 1021.18 1020.78 1020.51 1020.27 1019.99 1019.63 1019.17 1018.66 1018.14 1017.66 1017.25 1016.92 1016.64 1016.37 1016.09 1015.78 1015.45 1015.12 1014.85 1014.65 1014.54 1014.52 1014.55 1014.58 1014.57 1014.50 1014.36 1014.18 1014.00 1013.88 1013.85 1013.93 1014.11 1014.35 1014.62 1014.86 1015.05 1015.18 1015.25
1025.12 1024.08 1023.18 1022.49 1022.01 1021.67 1021.42 1021.14 1020.79 1020.33 1019.78 1019.18 1018.58 1018.03 1017.56 1017.17 1016.82 1016.49 1016.15 1015.78 1015.39 1015.02 1014.71 1014.49 1014.37 1014.34 1014.37 1014.40 1014.39 1014.32 1014.18 1014.00 1013.82 1013.69 1013.65 1013.72 1013.90 1014.14 1014.41 1014.67 1014.88 1015.03 1015.14
1025.40 1024.53 1023.81 1023.28 1022.91 1022.64 1022.38 1022.06 1021.63 1021.08 1020.43 1019.74 1019.07 1018.46 1017.94 1017.50 1017.11 1016.72 1016.32 1015.88 1015.43 1015.01 1014.65 1014.38 1014.23 1014.17 1014.17 1014.19 1014.18 1014.10 1013.97 1013.79 1013.62 1013.50 1013.46 1013.53 1013.70 1013.93 1014.19 1014.44 1014.66 1014.83 1014.96
1025.78 1025.07 1024.52 1024.12 1023.84 1023.61 1023.33 1022.95 1022.44 1021.81 1021.08 1020.33 1019.61 1018.97 1018.42 1017.94 1017.50 1017.07 1016.60 1016.10 1015.58 1015.09 1014.66 1014.33 1014.11 1014.00 1013.96 1013.94 1013.91 1013.83 1013.70 1013.55 1013.41 1013.31 1013.29 1013.36 1013.52 1013.73 1013.97 1014.20 1014.40 1014.58 1014.73
1026.31 1025.75 1025.32 1025.02 1024.78 1024.53 1024.21 1023.76 1023.18 1022.47 1021.70 1020.91 1020.18 1019.53 1018.97 1018.48 1018.01 1017.52 1017.00 1016.43 1015.84 1015.26 1014.75 1014.33 1014.03 1013.84 1013.72 1013.65 1013.58 1013.49 1013.38 1013.26 1013.15 1013.10 1013.11 1013.20 1013.36 1013.55 1013.76 1013.95 1014.13 1014.29 1014.45
1027.02 1026.56 1026.21 1025.94 1025.68 1025.38 1024.98 1024.46 1023.80 1023.06 1022.26 1021.49 1020.78 1020.16 1019.61 1019.11 1018.61 1018.09 1017.50 1016.85 1016.18 1015.51 1014.90 1014.39 1013.98 1013.69 1013.48 1013.33 1013.21 1013.10 1012.99 1012.90 1012.85 1012.85 1012.91 1013.03 1013.20 1013.38 1013.56 1013.71 1013.85 1013.97 1014.11
1027.88 1027.48 1027.15 1026.84 1026.52 1026.13 1025.63 1025.03 1024.32 1023.56 1022.79 1022.07 1021.41 1020.83 1020.31 1019.82 1019.30 1018.72 1018.07 1017.35 1016.59 1015.84 1015.13 1014.50 1013.99 1013.58 1013.26 1013.01 1012.81 1012.66 1012.54 1012.47 1012.47 1012.53 1012.65 1012.82 1013.01 1013.20 1013.35 1013.47 1013.56 1013.64 1013.74
1028.83 1028.46 1028.10 1027.72 1027.29 1026.78 1026.18 1025.50 1024.76 1024.02 1023.30 1022.65 1022.07 1021.55 1021.06 1020.57 1020.03 1019.41 1018.69 1017.90 1017.06 1016.22 1015.42 1014.70 1014.07 1013.53 1013.09 1012.72 1012.43 1012.20 1012.05 1011.99 1012.02 1012.13 1012.31 1012.54 1012.76 1012.96 1013.11 1013.19 1013.24 1013.27 1013.33
1029.79 1029.42 1029.01 1028.53 1027.98 1027.35 1026.65 1025.91 1025.16 1024.45 1023.81 1023.24 1022.74 1022.28 1021.83 1021.34 1020.77 1020.10 1019.33 1018.47 1017.57 1016.67 1015.80 1014.99 1014.25 1013.60 1013.02 1012.52 1012.10 1011.78 1011.56 1011.46 1011.49 1011.64 1011.87 1012.14 1012.41 1012.63 1012.79 1012.86 1012.88 1012.88 1012.90
1030.69 1030.31 1029.84 1029.27 1028.61 1027.87 1027.09 1026.31 1025.57 1024.90 1024.32 1023.84 1023.41 1023.01 1022.57 1022.07 1021.46 1020.75 1019.93 1019.04 1018.10 1017.17 1016.26 1015.39 1014.57 1013.81 1013.10 1012.46 1011.89 1011.43 1011.11 1010.94 1010.92 1011.06 1011.31 1011.61 1011.92 1012.18 1012.35 1012.44 1012.46 1012.44 1012.45
1031.47 1031.09 1030.59 1029.94 1029.19 1028.38 1027.54 1026.73 1026.00 1025.38 1024.86 1024.44 1024.06 1023.68 1023.24 1022.72 1022.08 1021.33 1020.48 1019.57 1018.63 1017.70 1016.78 1015.90 1015.03 1014.18 1013.36 1012.57 1011.85 1011.23 1010.76 1010.46 1010.36 1010.44 1010.66 1010.97 1011.29 1011.58 1011.79 1011.91 1011.95 1011.95 1011.96
1032.11 1031.76 1031.24 1030.56 1029.76 1028.90 1028.02 1027.20 1026.49 1025.89 1025.41 1025.01 1024.65 1024.26 1023.81 1023.25 1022.57 1021.79 1020.94 1020.04 1019.14 1018.24 1017.36 1016.49 1015.61 1014.71 1013.78 1012.86 1011.98 1011.19 1010.54 1010.09 1009.85 1009.82 1009.97 1010.24 1010.55 1010.85 1011.09 1011.25 1011.33 1011.37 1011.42
1032.64 1032.33 1031.82 1031.14 1030.33 1029.44 1028.55 1027.73 1027.02 1026.43 1025.95 1025.55 1025.16 1024.75 1024.25 1023.64 1022.94 1022.14 1021.30 1020.44 1019.60 1018.77 1017.96 1017.14 1016.27 1015.35 1014.36 1013.33 1012.30 1011.33 1010.50 1009.86 1009.45 1009.27 1009.30 1009.48 1009.74 1010.03 1010.28 1010.48 1010.61 1010.71 1010.82
1033.09 1032.82 1032.36 1031.70 1030.90 1030.02 1029.13 1028.30 1027.58 1026.97 1026.47 1026.02 1025.59 1025.12 1024.56 1023.91 1023.17 1022.38 1021.57 1020.76 1019.99 1019.26 1018.53 1017.78 1016.96 1016.04 1015.01 1013.90 1012.75 1011.64 1010.63 1009.80 1009.19 1008.84 1008.70 1008.76 1008.93 1009.17 1009.41 1009.63 1009.82 1009.98 1010.15
1033.49 1033.29 1032.87 1032.25 1031.48 1030.62 1029.74 1028.90 1028.15 1027.51 1026.95 1026.44 1025.94 1025.39 1024.77 1024.08 1023.32 1022.53 1021.75 1021.00 1020.31 1019.66 1019.02 1018.34 1017.58 1016.69 1015.66 1014.51 1013.29 1012.06 1010.90 1009.90 1009.10 1008.56 1008.25 1008.14 1008.19 1008.34 1008.55 1008.77 1008.98 1009.20 1009.43
1033.90 1033.73 1033.36 1032.79 1032.05 1031.22 1030.34 1029.50 1028.72 1028.02 1027.40 1026.81 1026.23 1025.60 1024.92 1024.18 1023.41 1022.62 1021.87 1021.17 1020.54 1019.96 1019.38 1018.77 1018.06 1017.22 1016.21 1015.06 1013.80 1012.50 1011.25 1010.11 1009.16 1008.44 1007.95 1007.67 1007.58 1007.62 1007.75 1007.94 1008.17 1008.42 1008.69
1034.31 1034.18 1033.84 1033.30 1032.60 1031.79 1030.93 1030.08 1029.26 1028.52 1027.82 1027.16 1026.49 1025.80 1025.06 1024.28 1023.49 1022.70 1021.95 1021.27 1020.67 1020.12 1019.58 1019.00 1018.34 1017.53 1016.56 1015.44 1014.19 1012.89 1011.59 1010.38 1009.32 1008.46 1007.81 1007.37 1007.13 1007.05 1007.09 1007.23 1007.43 1007.69 1007.98
1034.72 1034.59 1034.28 1033.77 1033.11 1032.32 1031.48 1030.62 1029.78 1028.99 1028.23 1027.50 1026.77 1026.01 1025.23 1024.42 1023.59 1022.79 1022.03 1021.33 1020.71 1020.14 1019.58 1019.00 1018.34 1017.56 1016.64 1015.57 1014.38 1013.12 1011.84 1010.61 1009.50 1008.55 1007.78 1007.22 1006.84 1006.64 1006.59 1006.66 1006.83 1007.07 1007.36
1035.08 1034.96 1034.65 1034.17 1033.54 1032.79 1031.97 1031.11 1030.27 1029.44 1028.64 1027.86 1027.07 1026.27 1025.44 1024.60 1023.74 1022.90 1022.10 1021.36 1020.67 1020.03 1019.41 1018.78 1018.10 1017.32 1016.43 1015.42 1014.31 1013.12 1011.91 1010.73 1009.62 1008.63 1007.80 1007.15 1006.67 1006.38 1006.24 1006.25 1006.37 1006.58 1006.85
1035.38 1035.24 1034.94 1034.48 1033.89 1033.17 1032.39 1031.56 1030.71 1029.87 1029.05 1028.23 1027.40 1026.56 1025.70 1024.82 1023.93 1023.04 1022.18 1021.35 1020.57 1019.82 1019.10 1018.38 1017.64 1016.83 1015.96 1015.01 1013.98 1012.89 1011.77 1010.67 1009.61 1008.64 1007.79 1007.09 1006.56 1006.20 1006.00 1005.95 1006.04 1006.23 1006.48
Thickness
5702 5706 5704 5707 5709 5711 5711 5712 5713 5714 5715 5716 5717 5718 5718 5719 5720 5721 5722 5722 5723 5723 5724 5724 5725 5726 5728 5730 5731 5732 5733 5734 5734 5734 5734 5734 5734 5734 5734 5735 5735 5737 5735
5693 5699 5699 5700 5702 5704 5705 5706 5707 5708 5709 5709 5710 5711 5712 5714 5715 5716 5716 5717 5718 5719 5720 5721 5721 5723 5724 5726 5727 5729 5730 5731 5730 5730 5731 5732 5732 5732 5732 5732 5733 5735 5733
5679 5687 5690 5693 5696 5698 5699 5700 5701 5702 5703 5704 5705 5705 5706 5707 5708 5709 5710 5711 5713 5714 5717 5717 5718 5720 5721 5722 5723 5725 5726 5727 5727 5727 5728 5731 5731 5729 5729 5729 5730 5730 5730
5665 5673 5677 5683 5688 5690 5692 5693 5695 5696 5697 5698 5699 5700 5701 5701 5702 5702 5703 5705 5706 5708 5711 5713 5714 5715 5717 5718 5719 5720 5722 5722 5722 5723 5727 5731 5729 5727 5726 5726 5726 5726 5727
5659 5664 5668 5674 5678 5681 5683 5686 5688 5689 5690 5692 5693 5694 5694 5695 5695 5696 5697 5699 5700 5702 5705 5707 5709 5710 5712 5714 5715 5715 5716 5717 5717 5719 5725 5726 5726 5723 5722 5722 5722 5723 5723
5654 5657 5660 5664 5667 5670 5672 5675 5678 5680 5682 5684 5686 5687 5687 5688 5689 5690 5691 5693 5695 5696 5699 5701 5703 5704 5706 5708 5710 5711 5711 5712 5713 5718 5721 5721 5721 5719 5719 5718 5719 5719 5719
5646 5648 5651 5653 5656 5658 5660 5662 5664 5666 5669 5671 5674 5677 5679 5680 5682 5683 5684 5686 5688 5690 5692 5695 5697 5698 5700 5702 5704 5705 5706 5708 5710 5715 5716 5717 5716 5715 5714 5714 5715 5716 5716
5636 5638 5642 5643 5644 5645 5646 5648 5650 5652 5655 5657 5660 5662 5666 5669 5672 5674 5676 5678 5680 5683 5685 5687 5689 5691 5693 5695 5697 5699 5700 5702 5707 5709 5710 5712 5711 5709 5709 5710 5711 5712 5712
5627 5629 5631 5632 5634 5634 5634 5634 5635 5637 5639 5642 5644 5648 5652 5656 5659 5662 5665 5668 5671 5674 5676 5678 5681 5683 5686 5688 5690 5692 5694 5696 5701 5702 5705 5706 5706 5704 5705 5706 5707 5708 5709
5619 5619 5619 5620 5621 5623 5624 5623 5623 5624 5625 5627 5630 5632 5636 5641 5645 5648 5652 5655 5659 5663 5666 5668 5672 5674 5677 5680 5683 5685 5687 5690 5694 5696 5697 5699 5699 5699 5700 5701 5702 5704 5705
5608 5606 5606 5606 5607 5609 5611 5611 5612 5612 5611 5613 5615 5617 5622 5625 5628 5632 5635 5640 5645 5650 5655 5659 5662 5664 5667 5671 5674 5677 5680 5686 5690 5690 5691 5692 5692 5692 5694 5696 5697 5699 5700
5595 5592 5590 5590 5590 5591 5594 5595 5596 5597 5596 5597 5598 5599 5603 5607 5611 5615 5621 5626 5632 5637 5643 5648 5652 5655 5659 5665 5668 5669 5675 5680 5683 5686 5687 5686 5685 5686 5688 5690 5693 5695 5696
5579 5577 5576 5575 5573 5574 5575 5576 5577 5577 5578 5579 5580 5582 5585 5588 5593 5599 5605 5611 5617 5623 5629 5634 5641 5646 5651 5655 5659 5663 5668 5672 5676 5679 5681 5680 5680 5680 5682 5685 5688 5691 5692
5565 5562 5561 5559 5557 5556 5555 5556 5557 5557 5558 5559 5560 5561 5565 5569 5572 5577 5584 5590 5598 5605 5611 5618 5625 5633 5639 5644 5649 5654 5659 5662 5667 5671 5674 5673 5674 5675 5677 5679 5682 5686 5688
5551 5547 5543 5541 5538 5536 5535 5533 5534 5534 5535 5537 5538 5539 5541 5546 5551 5555 5561 5568 5576 5583 5592 5600 5610 5619 5626 5633 5638 5643 5648 5653 5657 5662 5666 5666 5668 5670 5672 5674 5677 5681 5684
5533 5529 5524 5521 5517 5514 5512 5509 5509 5508 5508 5510 5512 5514 5516 5520 5526 5532 5539 5546 5554 5561 5569 5579 5591 5601 5611 5620 5627 5633 5637 5642 5647 5652 5657 5660 5661 5664 5667 5669 5672 5675 5679
5514 5508 5503 5499 5494 5491 5487 5484 5482 5480 5479 5481 5482 5485 5488 5492 5498 5506 5515 5523 5530 5538 5548 5559 5570 5581 5592 5603 5613 5621 5627 5633 5638 5643 5647 5652 5656 5659 5661 5664 5666 5670 5673
5494 5487 5481 5476 5471 5466 5461 5456 5453 5451 5450 5450 5452 5454 5456 5461 5468 5477 5487 5497 5505 5514 5525 5536 5547 5559 5572 5583 5595 5606 5613 5620 5627 5634 5639 5644 5648 5653 5657 5659 5661 5664 5668
5473 5465 5459 5451 5445 5439 5433 5427 5423 5420 5418 5419 5420 5423 5426 5431 5437 5446 5457 5468 5478 5489 5500 5511 5523 5535 5549 5562 5576 5589 5599 5607 5615 5623 5630 5636 5641 5645 5650 5655 5656 5658 5662
5449 5439 5432 5425 5418 5413 5409 5404 5401 5397 5394 5392 5392 5392 5395 5400 5407 5416 5427 5438 5450 5463 5475 5486 5499 5511 5525 5541 5557 5574 5587 5596 5604 5612 5620 5627 5633 5638 5643 5648 5651 5654 5656
5429 5418 5407 5399 5393 5390 5388 5385 5384 5383 5381 5379 5375 5372 5372 5374 5378 5385 5396 5407 5419 5433 5446 5459 5472 5487 5502 5518 5536 5557 5575 5586 5595 5603 5609 5617 5625 5630 5635 5640 5644 5649 5653
5408 5394 5383 5376 5373 5370 5366 5363 5361 5363 5364 5363 5361 5358 5355 5355 5356 5359 5364 5375 5388 5402 5417 5431 5444 5459 5475 5490 5506 5530 5557 5574 5587 5594 5600 5607 5615 5621 5626 5631 5636 5641 5646
5387 5374 5364 5359 5357 5354 5350 5347 5346 5347 5348 5346 5345 5343 5339 5337 5337 5338 5340 5345 5356 5370 5387 5402 5416 5433 5449 5463 5478 5498 5529 5556 5570 5583 5591 5598 5604 5611 5617 5622 5627 5632 5637
5368 5356 5349 5345 5342 5338 5334 5332 5329 5329 5329 5327 5325 5325 5324 5322 5321 5321 5322 5324 5330 5340 5356 5373 5390 5406 5423 5441 5456 5474 5495 5516 5538 5562 5576 5584 5591 5599 5607 5612 5617 5623 5628
5351 5342 5336 5331 5327 5322 5317 5314 5311 5309 5307 5307 5307 5308 5309 5309 5309 5308 5308 5310 5312 5318 5329 5345 5364 5383 5401 5419 5435 5451 5468 5489 5511 5531 5551 5568 5577 5585 5593 5600 5605 5611 5618
5338 5331 5324 5319 5313 5307 5301 5296 5292 5290 5288 5288 5289 5291 5293 5296 5297 5297 5297 5298 5301 5306 5314 5326 5343 5362 5382 5401 5418 5433 5447 5466 5494 5511 5529 5546 5560 5572 5579 5586 5593 5600 5606